RH
5 5 4 3 2 2 20 69 80 86 82 49 32 27 27 29 25 23 20 18 15 16 16 18 20 24 24 22 23 30 70 56 29 27 24 22 37 37 37 36 35 33 40 38 41
7 6 5 4 2 2 5 41 76 82 86 78 44 30 30 29 27 24 29 27 20 16 17 17 20 28 28 25 29 38 56 50 30 25 28 37 34 40 39 38 37 37 39 40 39
8 8 6 4 3 2 2 22 52 84 86 91 66 35 32 32 27 24 36 34 29 18 18 22 34 36 32 29 32 39 42 28 27 29 57 54 45 43 44 42 40 36 40 42 44
10 9 8 6 3 2 1 6 32 72 90 90 96 49 36 33 41 34 41 44 36 34 30 36 37 40 48 41 34 38 47 45 37 30 58 55 45 42 45 43 44 39 38 46 48
14 12 11 9 6 4 2 1 11 69 92 88 100 69 37 34 34 48 70 58 50 78 76 43 31 56 69 39 46 67 51 68 57 44 61 57 53 43 45 48 42 40 39 46 53
51 79 72 43 16 9 4 2 2 75 98 98 99 84 39 38 45 46 73 74 79 83 91 89 68 42 58 67 81 77 81 74 75 57 59 60 60 54 36 47 45 37 42 46 60
99 94 87 80 54 16 8 4 2 22 94 100 100 92 43 43 55 49 74 67 81 81 98 100 96 78 77 76 94 85 84 68 57 47 43 49 53 51 27 24 29 39 29 41 52
96 97 82 81 74 64 66 22 5 15 78 99 99 96 52 50 53 55 66 69 68 76 96 100 98 92 81 78 78 81 84 79 38 44 39 43 40 25 26 27 25 18 18 19 33
88 88 76 87 85 87 87 83 34 9 95 98 100 96 76 43 44 66 76 69 72 79 82 99 100 100 90 86 78 81 79 66 61 55 62 59 51 39 40 38 39 34 29 21 15
87 86 84 84 86 85 75 93 76 14 99 98 99 99 86 46 39 65 76 76 73 91 90 98 99 99 100 100 95 85 79 75 72 65 66 65 65 57 52 54 36 32 30 28 26
82 78 80 62 90 86 78 77 70 31 96 98 99 96 74 48 46 50 69 71 79 74 78 89 99 95 96 78 72 77 84 83 66 66 71 66 64 64 38 37 39 27 27 22 19
63 61 66 74 97 97 91 78 88 79 97 99 99 98 64 45 46 60 70 81 97 90 92 94 96 80 85 80 81 87 88 81 64 60 64 58 50 44 30 16 15 10 11 11 12
59 51 57 73 89 96 93 74 83 98 96 97 99 98 77 62 51 48 72 80 96 94 92 92 94 99 93 89 85 83 79 73 73 52 47 48 28 15 15 13 17 15 13 14 14
58 49 50 59 79 85 84 66 68 98 96 98 98 98 90 74 64 72 79 82 99 98 98 92 88 81 84 85 86 82 77 76 78 69 63 62 80 16 19 17 18 15 15 13 13
35 37 45 43 59 99 98 69 58 94 96 98 98 99 95 74 63 98 100 100 99 98 94 84 86 90 91 76 89 86 82 78 75 72 78 54 66 25 23 18 16 23 21 22 21
62 61 53 69 88 98 84 72 81 88 95 98 98 90 99 95 80 93 98 98 92 94 94 91 88 87 86 83 86 86 84 76 73 83 94 40 54 34 21 23 20 20 28 25 23
77 83 97 82 91 87 77 82 67 94 97 98 98 83 89 99 92 98 99 99 91 96 98 96 94 86 81 86 88 89 81 90 88 94 92 57 72 40 26 22 25 25 23 26 28
89 91 95 93 89 65 80 75 68 80 93 98 98 86 98 94 99 100 100 98 84 83 86 82 79 77 66 89 78 90 82 81 93 92 82 56 70 34 20 24 33 34 36 36 36
88 98 92 94 91 85 99 90 74 97 98 98 99 96 98 95 92 98 99 93 78 77 77 82 91 94 91 87 86 92 95 92 91 75 85 48 29 19 28 34 34 36 37 38 39
92 93 89 96 81 86 95 92 94 98 97 91 94 93 96 93 87 91 96 84 83 74 84 83 83 96 91 98 94 86 78 93 91 94 94 67 51 36 36 37 37 37 38 39 41
89 86 94 94 73 84 96 95 98 98 97 98 86 96 87 95 89 95 78 91 85 72 94 88 87 96 92 89 80 96 94 88 84 91 96 96 59 41 40 43 45 46 51 56 62
81 86 97 90 90 93 97 97 96 98 88 87 76 81 74 82 91 79 80 94 94 94 90 96 85 84 83 78 86 80 78 91 84 66 79 80 71 56 47 55 55 67 81 75 74
71 86 89 87 86 94 97 96 98 95 96 96 90 81 84 81 83 82 90 94 98 98 94 90 94 91 90 85 90 93 89 89 87 80 86 88 66 56 58 66 95 97 90 78 67
69 79 92 73 81 92 95 98 98 100 89 88 89 84 89 91 86 97 89 94 100 98 97 96 89 77 80 88 90 88 83 82 85 98 85 83 75 65 88 99 93 93 84 81 77
56 70 86 97 99 100 97 96 92 99 97 97 88 85 88 91 94 94 99 89 88 96 100 98 90 88 79 73 77 73 69 79 94 81 98 69 85 89 99 97 99 98 98 98 76
57 65 61 89 99 97 89 99 98 98 89 96 93 95 95 92 87 92 97 82 77 84 93 99 92 88 65 74 78 83 76 73 94 94 100 93 98 100 100 95 99 100 99 100 92
62 46 47 56 88 93 95 88 91 90 93 92 86 78 87 77 80 84 88 93 83 86 87 100 96 85 76 81 86 84 72 75 80 85 94 96 84 95 94 100 99 98 97 99 94
Wind_Speed
23 21 23 22 23 26 25 26 23 24 24 23 23 21 22 24 24 26 26 19 25 25 23 25 24 23 25 27 29 26 31 33 34 31 30 21 19 11 22 21 20 25 18 20 18
28 28 24 25 25 25 28 27 28 22 24 23 22 21 21 23 25 27 18 23 24 23 25 22 20 21 28 26 30 34 38 39 32 30 24 19 24 19 19 23 22 22 23 21 22
34 30 30 26 27 27 28 30 27 27 23 24 21 21 20 22 25 19 21 22 20 20 20 21 20 21 27 27 32 35 39 37 29 18 21 29 25 22 20 23 26 29 25 24 24
37 37 37 32 28 29 30 31 31 30 26 22 22 21 20 22 14 18 21 19 17 17 18 19 22 23 25 31 30 31 34 29 23 24 27 29 30 29 28 29 25 29 31 28 25
41 41 41 39 35 30 31 32 33 31 28 27 22 22 21 24 22 12 14 16 17 19 14 13 21 22 24 25 26 27 26 21 20 28 31 32 34 35 36 33 35 34 34 33 25
43 38 35 34 32 30 31 33 34 34 31 26 25 23 23 24 21 23 10 19 22 22 18 17 16 19 17 15 21 16 17 21 27 28 34 37 39 38 41 35 35 33 35 37 30
32 35 35 30 25 26 29 32 34 36 31 25 28 26 27 19 21 22 19 12 25 25 22 18 17 22 19 19 19 20 18 21 30 30 32 40 44 45 34 31 37 43 41 43 41
37 37 34 25 23 20 22 26 32 35 34 25 31 27 28 24 23 20 22 20 11 25 24 24 22 19 19 19 17 20 20 24 19 19 22 27 44 29 22 25 29 33 36 37 46
34 32 25 22 20 17 15 17 25 33 30 25 35 29 26 26 24 22 17 21 15 21 27 26 27 26 22 22 19 19 20 18 12 11 15 22 29 20 19 27 32 29 29 31 36
27 25 20 20 17 15 15 16 15 34 32 21 26 26 28 29 23 22 20 21 22 16 23 26 22 22 20 21 16 19 15 13 15 10 16 21 29 27 20 23 28 30 30 29 29
24 23 21 19 17 17 15 12 13 28 38 28 22 33 13 15 22 23 21 22 26 26 21 21 25 27 22 23 22 17 9 13 16 7 16 21 28 30 29 30 33 32 34 32 29
22 21 17 13 16 16 15 11 10 20 27 28 12 23 11 23 23 24 24 25 24 23 23 22 20 17 13 12 9 13 18 19 19 17 19 29 39 37 34 32 30 25 29 29 27
18 14 10 12 18 18 7 7 15 12 21 28 18 23 22 18 19 27 26 23 20 22 21 24 15 17 16 16 16 20 21 20 19 22 24 31 42 29 17 17 14 12 14 17 20
11 11 13 16 17 20 2 6 22 24 5 26 29 26 24 20 21 23 24 21 23 24 18 11 12 9 21 20 18 16 16 13 13 13 9 6 12 29 20 24 23 20 19 21 22
14 14 14 17 23 9 5 7 22 18 1 29 29 21 26 24 23 29 25 19 21 21 18 11 11 14 11 11 16 10 9 11 14 15 19 23 12 19 17 16 11 13 14 13 10
19 17 21 19 17 7 8 5 16 9 4 15 24 29 33 15 22 34 28 21 18 17 16 10 11 13 14 9 14 10 13 12 9 9 5 16 18 5 2 1 5 7 6 8 13
26 20 11 5 7 12 11 11 12 4 2 22 29 34 29 24 22 36 30 28 19 17 19 21 16 11 8 11 15 11 6 2 1 2 7 4 12 24 8 14 15 19 23 19 21
18 12 8 2 10 15 16 17 4 6 12 22 32 34 27 24 27 29 27 29 18 13 20 15 5 15 12 16 8 17 8 4 4 3 4 6 12 8 16 20 15 13 13 15 20
11 12 8 9 11 14 18 3 3 2 20 31 35 32 23 20 19 25 24 29 24 16 5 7 3 2 4 14 14 10 13 5 3 7 3 9 13 21 11 13 16 21 22 21 22
7 10 10 8 10 15 8 4 1 8 24 29 22 19 24 21 17 19 20 17 18 21 10 9 5 4 9 7 18 5 6 6 5 2 5 8 11 20 15 18 16 13 16 17 19
15 13 13 10 6 10 6 1 8 20 20 8 13 15 26 22 14 17 16 2 16 19 15 8 6 7 12 12 13 20 13 6 5 6 4 4 7 7 10 18 25 30 33 35 33
11 16 13 13 7 13 1 13 27 16 16 10 9 15 23 22 19 13 14 2 15 14 23 11 6 8 16 4 3 13 20 17 7 4 11 8 13 11 15 14 29 43 51 51 37
21 20 14 8 4 6 9 20 21 18 10 8 13 13 21 22 14 12 15 9 15 16 20 18 7 5 4 7 13 15 17 18 20 22 23 7 14 13 19 42 47 34 30 31 27
13 13 11 11 9 6 19 11 20 18 14 15 18 23 24 13 7 14 16 13 18 18 12 11 7 6 8 6 6 13 15 17 20 15 28 36 45 47 46 44 28 33 32 31 21
15 9 8 12 16 15 11 14 17 22 25 20 18 18 16 11 13 14 9 16 19 23 13 14 8 12 15 16 18 18 20 21 25 33 27 42 41 39 37 36 30 36 40 33 19
5 9 10 15 12 16 20 18 14 13 16 19 20 15 8 12 5 14 11 12 9 20 19 18 8 9 11 5 7 13 13 18 20 22 30 32 39 30 32 28 29 35 30 31 18
3 6 7 11 16 14 14 7 10 10 12 14 12 10 8 6 5 4 5 5 5 7 14 11 7 3 4 3 12 11 3 4 12 19 17 21 32 30 26 28 31 34 23 20 13
Wind_Direction
314 305 302 297 283 277 253 246 257 266 265 259 254 252 249 247 242 238 237 241 239 241 231 227 225 219 221 216 217 211 217 227 227 231 236 214 243 265 226 228 236 222 240 243 241
310 308 298 291 285 276 263 244 244 255 260 259 256 252 250 248 245 238 234 233 233 233 231 227 222 216 217 213 214 207 218 225 228 231 240 239 241 262 245 233 223 220 227 235 234
306 302 299 291 281 277 265 253 241 245 257 251 253 251 250 248 247 242 235 233 235 229 222 221 213 210 213 211 211 215 224 227 232 225 235 245 234 251 224 233 226 226 233 234 243
303 298 296 291 276 272 266 253 243 236 244 248 246 249 246 245 237 237 228 225 221 218 219 209 207 198 206 213 212 219 229 233 238 212 233 241 235 232 231 224 215 225 218 230 234
304 302 295 289 284 269 261 255 239 229 232 240 238 242 238 241 232 228 213 202 200 200 205 209 215 201 212 217 212 222 227 223 220 212 234 238 240 235 232 235 232 226 216 219 223
306 310 308 305 296 277 257 250 235 225 224 240 241 230 233 237 234 219 195 194 194 198 199 201 210 206 212 179 206 225 232 231 224 225 234 236 244 243 239 235 240 233 219 217 217
307 310 312 305 292 269 258 247 232 223 221 233 244 221 225 218 228 219 208 194 199 201 202 197 207 195 191 184 204 216 229 236 237 237 239 237 249 251 259 250 245 245 245 224 223
302 305 312 302 299 295 288 256 235 214 217 217 234 220 224 215 221 223 213 212 194 206 193 199 194 205 204 205 211 218 236 251 254 262 257 252 257 257 260 255 246 241 242 237 228
311 311 309 301 304 297 265 277 243 209 214 222 220 222 224 217 214 217 208 207 206 205 197 202 204 192 221 215 227 232 247 256 270 240 252 241 266 276 272 246 249 248 245 242 237
317 315 308 303 306 299 272 274 257 204 189 203 200 220 224 214 205 209 202 197 195 193 200 202 208 207 206 199 215 233 246 261 261 292 254 262 273 281 253 237 252 255 256 253 246
319 316 312 304 303 298 279 271 271 211 215 207 212 209 205 197 197 200 201 196 199 202 198 197 215 226 234 241 247 215 252 274 236 205 250 258 265 262 266 254 251 258 260 262 263
317 314 305 308 319 319 277 278 250 204 229 197 168 192 186 192 187 188 193 189 193 195 201 203 217 223 220 217 230 244 261 261 241 238 268 257 259 266 272 271 268 260 256 256 256
317 305 288 309 323 340 279 253 197 182 202 205 172 156 180 179 190 192 188 187 183 180 196 202 212 208 201 197 222 233 248 254 265 259 261 275 282 284 270 265 260 264 268 262 261
313 279 285 297 318 332 315 214 192 165 188 182 163 167 181 175 172 186 187 184 177 182 182 192 195 184 203 208 221 241 247 252 264 281 282 301 292 277 273 274 280 284 276 274 269
322 297 286 299 314 332 138 169 197 192 333 166 159 166 169 164 175 174 171 173 180 183 187 184 199 213 224 220 220 223 231 244 259 270 283 273 253 292 297 297 288 270 274 280 283
331 307 296 296 290 220 157 159 180 191 244 157 155 155 160 153 172 162 167 173 167 170 199 197 195 210 227 205 199 222 244 260 280 288 281 277 223 278 291 67 331 270 297 279 287
328 335 337 332 166 156 149 159 137 221 24 143 147 150 161 158 162 162 171 166 167 167 178 205 219 212 200 194 198 211 216 61 249 226 235 11 219 243 218 299 293 276 284 292 269
348 359 5 76 143 149 146 146 130 225 273 150 152 152 153 162 164 169 172 175 174 172 189 195 199 242 226 200 199 206 222 177 221 228 285 261 229 270 313 310 293 294 299 283 277
6 30 49 102 141 146 153 122 190 183 141 146 146 154 155 160 167 182 188 188 186 165 144 159 195 216 140 190 198 183 211 202 284 277 275 242 269 281 289 284 283 269 268 272 275
26 48 78 108 120 156 137 96 18 155 151 154 145 162 175 170 173 185 185 211 211 196 143 148 128 159 196 174 193 190 189 189 203 298 278 280 267 262 286 270 276 269 266 263 269
90 93 85 70 135 170 208 120 101 119 122 111 145 148 173 158 178 174 178 184 197 187 174 180 169 171 194 215 207 205 210 198 220 234 216 290 256 302 239 290 295 292 296 291 287
95 96 92 93 131 166 224 123 126 113 103 115 179 182 177 167 161 162 169 171 189 196 183 186 198 200 218 208 292 230 226 203 209 215 237 279 273 274 282 279 303 298 297 295 294
93 79 78 79 123 192 56 108 109 122 120 137 147 160 164 156 149 169 172 171 177 174 182 202 191 148 129 196 215 222 228 240 251 261 260 263 268 284 279 297 306 310 309 308 303
91 85 70 105 130 120 120 87 91 84 115 101 121 124 141 143 138 155 171 171 172 177 185 197 220 213 191 133 149 215 235 242 244 245 259 253 276 304 310 314 316 308 308 306 297
100 85 66 44 99 129 136 112 93 109 110 118 123 111 111 122 131 152 171 172 184 190 180 202 225 242 251 248 245 259 254 251 246 264 252 291 292 307 319 318 311 305 307 313 297
97 125 102 81 103 108 122 92 103 100 116 125 135 149 144 136 142 168 177 173 175 198 208 217 237 273 294 252 246 259 257 256 258 279 280 301 298 325 321 319 313 309 314 318 281
135 137 127 120 121 115 128 118 109 112 116 138 147 152 153 130 125 163 185 193 197 198 206 209 217 276 276 300 287 275 158 267 305 312 303 314 332 320 330 323 311 316 331 334 313